Time,TemperatureF,DewpointF,PressureIn,WindDirection,WindDirectionDegrees,WindSpeedMPH,WindSpeedGustMPH,Humidity,HourlyPrecipIn,Conditions,Clouds,dailyrainin,SoftwareType,DateUTC
2014-09-16 00:03:00,57.1,47.7,28.38,NNE,23,4.3,7.2,71,0.00,,,0.00,WUHU216HW,2014-09-16 05:03:00,
2014-09-16 00:08:00,56.9,47.9,28.38,NNE,23,3.6,6.5,72,0.00,,,0.00,WUHU216HW,2014-09-16 05:08:00,
2014-09-16 00:13:00,56.9,47.5,28.38,NNE,23,4.7,6.5,71,0.00,,,0.00,WUHU216HW,2014-09-16 05:13:00,
2014-09-16 00:18:00,56.7,47.7,28.38,NNE,23,3.1,5.4,72,0.00,,,0.00,WUHU216HW,2014-09-16 05:18:00,
2014-09-16 00:23:00,56.5,47.6,28.38,NNE,23,4.7,4.9,72,0.00,,,0.00,WUHU216HW,2014-09-16 05:23:00,
2014-09-16 00:28:00,56.2,47.6,28.38,NNE,23,5.4,5.8,73,0.00,,,0.00,WUHU216HW,2014-09-16 05:28:00,
2014-09-16 00:33:00,56.2,47.6,28.38,NNE,23,5.4,5.8,73,0.00,,,0.00,WUHU216HW,2014-09-16 05:33:00,
2014-09-16 00:38:00,56.0,47.4,28.38,NNE,23,4.3,5.6,73,0.00,,,0.00,WUHU216HW,2014-09-16 05:38:00,
2014-09-16 00:43:00,55.8,47.3,28.38,NNE,23,4.7,5.4,73,0.00,,,0.00,WUHU216HW,2014-09-16 05:43:00,
2014-09-16 00:48:00,55.8,47.6,28.38,NNE,23,3.8,5.4,74,0.00,,,0.00,WUHU216HW,2014-09-16 05:48:00,
2014-09-16 00:53:00,55.6,47.8,28.37,NNE,23,4.7,4.9,75,0.00,,,0.00,WUHU216HW,2014-09-16 05:53:00,
2014-09-16 00:58:00,55.4,47.6,28.37,NNE,23,4.7,5.4,75,0.00,,,0.00,WUHU216HW,2014-09-16 05:58:00,
2014-09-16 01:04:00,55.3,47.8,28.37,NNE,23,4.9,5.4,76,0.00,,,0.00,WUHU216HW,2014-09-16 06:04:00,
2014-09-16 01:09:00,55.1,47.6,28.37,NNE,23,4.0,5.4,76,0.00,,,0.00,WUHU216HW,2014-09-16 06:09:00,
2014-09-16 01:14:00,55.1,47.6,28.37,NNE,23,5.1,5.4,76,0.00,,,0.00,WUHU216HW,2014-09-16 06:14:00,
2014-09-16 01:19:00,55.1,47.6,28.37,NNE,23,3.4,5.4,76,0.00,,,0.00,WUHU216HW,2014-09-16 06:19:00,
2014-09-16 01:24:00,55.1,47.6,28.37,NNE,23,2.7,5.4,76,0.00,,,0.00,WUHU216HW,2014-09-16 06:24:00,
2014-09-16 01:25:00,55.1,47.6,28.37,NNE,23,4.5,5.4,76,0.00,,,0.00,WUHU216HW,2014-09-16 06:25:00,
2014-09-16 01:30:00,54.9,47.4,28.37,NNE,23,4.3,4.7,76,0.00,,,0.00,WUHU216HW,2014-09-16 06:30:00,
2014-09-16 01:35:00,54.9,47.4,28.38,NNE,23,3.1,4.7,76,0.00,,,0.00,WUHU216HW,2014-09-16 06:35:00,
2014-09-16 01:40:00,54.7,47.3,28.38,NNE,23,2.0,3.4,76,0.00,,,0.00,WUHU216HW,2014-09-16 06:40:00,
2014-09-16 01:46:00,54.7,47.3,28.38,NNE,23,3.4,3.4,76,0.00,,,0.00,WUHU216HW,2014-09-16 06:46:00,
2014-09-16 01:51:00,54.5,47.1,28.37,NNE,23,2.0,3.4,76,0.00,,,0.00,WUHU216HW,2014-09-16 06:51:00,
2014-09-16 01:56:00,54.5,47.1,28.37,NNE,23,3.4,3.4,76,0.00,,,0.00,WUHU216HW,2014-09-16 06:56:00,
2014-09-16 02:01:00,54.5,47.1,28.37,NNE,23,2.7,3.4,76,0.00,,,0.00,WUHU216HW,2014-09-16 07:01:00,
2014-09-16 02:06:00,54.4,47.0,28.38,NNE,23,2.7,3.4,76,0.00,,,0.00,WUHU216HW,2014-09-16 07:06:00,
2014-09-16 02:08:00,54.4,47.3,28.38,NNE,23,4.3,4.3,77,0.00,,,0.00,WUHU216HW,2014-09-16 07:08:00,
2014-09-16 02:13:00,54.4,47.6,28.38,NNE,23,3.4,4.3,78,0.00,,,0.00,WUHU216HW,2014-09-16 07:13:00,
2014-09-16 02:18:00,54.2,47.5,28.37,NNE,23,2.9,4.0,78,0.00,,,0.00,WUHU216HW,2014-09-16 07:18:00,
2014-09-16 02:23:00,54.0,47.4,28.37,NNE,23,5.1,5.1,78,0.00,,,0.00,WUHU216HW,2014-09-16 07:23:00,
2014-09-16 02:28:00,53.8,47.5,28.37,NNE,23,3.1,5.1,79,0.00,,,0.00,WUHU216HW,2014-09-16 07:28:00,
2014-09-16 02:34:00,53.6,48.0,28.37,NNE,23,4.3,4.5,81,0.00,,,0.00,WUHU216HW,2014-09-16 07:34:00,
2014-09-16 02:39:00,53.3,48.0,28.37,NNE,23,5.4,5.6,82,0.00,,,0.00,WUHU216HW,2014-09-16 07:39:00,
2014-09-16 02:44:00,53.3,47.6,28.37,NNE,23,3.4,5.6,81,0.00,,,0.00,WUHU216HW,2014-09-16 07:44:00,
2014-09-16 02:49:00,53.3,48.0,28.36,NNE,23,4.0,4.7,82,0.00,,,0.00,WUHU216HW,2014-09-16 07:49:00,
2014-09-16 02:54:00,53.1,47.8,28.36,NNE,23,2.5,4.3,82,0.00,,,0.00,WUHU216HW,2014-09-16 07:54:00,
2014-09-16 02:59:00,53.1,47.4,28.37,NNE,23,3.4,4.3,81,0.00,,,0.00,WUHU216HW,2014-09-16 07:59:00,
2014-09-16 03:04:00,53.1,47.8,28.37,NNE,23,3.1,4.0,82,0.00,,,0.00,WUHU216HW,2014-09-16 08:04:00,
2014-09-16 03:09:00,52.9,47.6,28.36,NNE,23,1.1,4.3,82,0.00,,,0.00,WUHU216HW,2014-09-16 08:09:00,
2014-09-16 03:14:00,52.9,47.6,28.36,NNE,23,3.4,4.3,82,0.00,,,0.00,WUHU216HW,2014-09-16 08:14:00,
2014-09-16 03:18:00,52.9,47.9,28.36,NNE,23,5.1,5.1,83,0.00,,,0.00,WUHU216HW,2014-09-16 08:18:00,
2014-09-16 03:23:00,52.6,47.9,28.36,NNE,23,4.3,5.1,84,0.00,,,0.00,WUHU216HW,2014-09-16 08:23:00,
2014-09-16 03:28:00,52.4,47.3,28.36,NNE,23,4.0,4.5,83,0.00,,,0.00,WUHU216HW,2014-09-16 08:28:00,
2014-09-16 03:31:00,52.6,47.9,28.36,NNE,23,3.6,4.5,84,0.00,,,0.00,WUHU216HW,2014-09-16 08:31:00,
2014-09-16 03:36:00,52.6,47.9,28.35,NNE,23,3.8,4.5,84,0.00,,,0.00,WUHU216HW,2014-09-16 08:36:00,
2014-09-16 03:41:00,52.6,47.9,28.35,NNE,23,4.7,4.7,84,0.00,,,0.00,WUHU216HW,2014-09-16 08:41:00,
2014-09-16 03:46:00,52.4,47.7,28.35,NNE,23,4.7,4.7,84,0.00,,,0.00,WUHU216HW,2014-09-16 08:46:00,
2014-09-16 03:51:00,52.2,47.5,28.35,NNE,23,4.0,4.9,84,0.00,,,0.00,WUHU216HW,2014-09-16 08:51:00,
2014-09-16 03:56:00,52.2,47.5,28.35,NNE,23,3.4,4.9,84,0.00,,,0.00,WUHU216HW,2014-09-16 08:56:00,
2014-09-16 04:01:00,52.2,47.5,28.36,NNE,23,3.4,4.0,84,0.00,,,0.00,WUHU216HW,2014-09-16 09:01:00,
2014-09-16 04:06:00,52.2,47.8,28.36,NNE,23,4.5,4.5,85,0.00,,,0.00,WUHU216HW,2014-09-16 09:06:00,
2014-09-16 04:12:00,52.4,48.0,28.35,NNE,23,3.4,4.5,85,0.00,,,0.00,WUHU216HW,2014-09-16 09:12:00,
2014-09-16 04:17:00,52.4,48.0,28.36,NNE,23,2.9,4.3,85,0.00,,,0.00,WUHU216HW,2014-09-16 09:17:00,
2014-09-16 04:22:00,52.2,47.5,28.35,NNE,23,4.0,4.3,84,0.00,,,0.00,WUHU216HW,2014-09-16 09:22:00,
2014-09-16 04:27:00,52.2,47.5,28.36,NNE,23,3.8,4.0,84,0.00,,,0.00,WUHU216HW,2014-09-16 09:27:00,
2014-09-16 04:32:00,52.2,47.5,28.35,NNE,23,1.1,3.8,84,0.00,,,0.00,WUHU216HW,2014-09-16 09:32:00,
2014-09-16 04:37:00,52.4,48.0,28.35,NNE,23,2.2,3.4,85,0.00,,,0.00,WUHU216HW,2014-09-16 09:37:00,
2014-09-16 04:38:00,52.4,48.0,28.35,NNE,23,2.7,3.4,85,0.00,,,0.00,WUHU216HW,2014-09-16 09:38:00,
2014-09-16 04:43:00,52.4,47.7,28.36,NNE,23,0.2,2.7,84,0.00,,,0.00,WUHU216HW,2014-09-16 09:43:00,
2014-09-16 04:48:00,52.4,47.7,28.35,NNE,23,2.9,3.4,84,0.00,,,0.00,WUHU216HW,2014-09-16 09:48:00,
2014-09-16 04:53:00,52.4,47.7,28.35,NNE,23,1.3,3.4,84,0.00,,,0.00,WUHU216HW,2014-09-16 09:53:00,
2014-09-16 04:58:00,52.4,47.7,28.35,NNE,23,2.0,2.7,84,0.00,,,0.00,WUHU216HW,2014-09-16 09:58:00,
2014-09-16 05:03:00,52.6,47.9,28.35,NNE,23,2.0,2.5,84,0.00,,,0.00,WUHU216HW,2014-09-16 10:03:00,
2014-09-16 05:08:00,52.6,47.9,28.35,NNE,23,2.0,2.5,84,0.00,,,0.00,WUHU216HW,2014-09-16 10:08:00,
2014-09-16 05:13:00,52.4,47.3,28.35,NNE,23,1.8,2.5,83,0.00,,,0.00,WUHU216HW,2014-09-16 10:13:00,
2014-09-16 05:17:00,52.4,47.3,28.35,NNE,23,0.4,2.5,83,0.00,,,0.00,WUHU216HW,2014-09-16 10:17:00,
2014-09-16 05:22:00,52.4,47.3,28.35,NNE,23,2.2,2.2,83,0.00,,,0.00,WUHU216HW,2014-09-16 10:22:00,
2014-09-16 05:27:00,52.2,47.2,28.35,NNE,23,2.5,2.5,83,0.00,,,0.00,WUHU216HW,2014-09-16 10:27:00,
2014-09-16 05:32:00,52.2,47.2,28.34,NNE,23,2.2,2.9,83,0.00,,,0.00,WUHU216HW,2014-09-16 10:32:00,
2014-09-16 05:37:00,52.2,47.5,28.34,NNE,23,2.0,2.9,84,0.00,,,0.00,WUHU216HW,2014-09-16 10:37:00,
2014-09-16 05:42:00,52.2,47.5,28.34,NNE,23,0.9,2.5,84,0.00,,,0.00,WUHU216HW,2014-09-16 10:42:00,
2014-09-16 05:47:00,52.0,47.4,28.34,NNE,23,2.7,3.4,84,0.00,,,0.00,WUHU216HW,2014-09-16 10:47:00,
2014-09-16 05:52:00,52.0,47.4,28.34,NNE,23,2.9,3.4,84,0.00,,,0.00,WUHU216HW,2014-09-16 10:52:00,
2014-09-16 05:58:00,52.0,47.6,28.34,NNE,23,1.1,3.1,85,0.00,,,0.00,WUHU216HW,2014-09-16 10:58:00,
2014-09-16 06:03:00,51.8,47.4,28.34,NNE,23,0.9,3.1,85,0.00,,,0.00,WUHU216HW,2014-09-16 11:03:00,
2014-09-16 06:08:00,51.7,47.3,28.35,NNE,23,2.0,2.7,85,0.00,,,0.00,WUHU216HW,2014-09-16 11:08:00,
2014-09-16 06:13:00,51.3,47.5,28.35,NNE,23,2.9,3.8,87,0.00,,,0.00,WUHU216HW,2014-09-16 11:13:00,
2014-09-16 06:18:00,51.1,47.6,28.35,NNE,23,2.0,3.8,88,0.00,,,0.00,WUHU216HW,2014-09-16 11:18:00,
2014-09-16 06:23:00,51.1,47.6,28.35,NNE,23,0.9,2.5,88,0.00,,,0.00,WUHU216HW,2014-09-16 11:23:00,
2014-09-16 06:28:00,51.3,47.5,28.35,NNE,23,2.5,2.5,87,0.00,,,0.00,WUHU216HW,2014-09-16 11:28:00,
2014-09-16 06:33:00,51.5,47.7,28.35,NNE,23,1.8,2.9,87,0.00,,,0.00,WUHU216HW,2014-09-16 11:33:00,
2014-09-16 06:38:00,51.7,47.9,28.35,NNE,23,1.1,2.9,87,0.00,,,0.00,WUHU216HW,2014-09-16 11:38:00,
2014-09-16 06:43:00,51.8,48.1,28.35,NNE,23,2.9,2.9,87,0.00,,,0.00,WUHU216HW,2014-09-16 11:43:00,
2014-09-16 06:48:00,52.2,48.4,28.34,NNE,23,3.4,3.4,87,0.00,,,0.00,WUHU216HW,2014-09-16 11:48:00,
2014-09-16 06:53:00,52.2,48.4,28.34,NNE,23,3.8,4.5,87,0.00,,,0.00,WUHU216HW,2014-09-16 11:53:00,
2014-09-16 06:58:00,52.6,48.8,28.34,NNE,23,3.4,4.5,87,0.00,,,0.00,WUHU216HW,2014-09-16 11:58:00,
2014-09-16 07:04:00,52.7,49.0,28.35,NNE,23,4.0,5.1,87,0.00,,,0.00,WUHU216HW,2014-09-16 12:04:00,
2014-09-16 07:09:00,52.7,49.0,28.34,NNE,23,4.7,5.1,87,0.00,,,0.00,WUHU216HW,2014-09-16 12:09:00,
2014-09-16 07:11:00,52.7,49.0,28.34,NNE,23,4.5,4.7,87,0.00,,,0.00,WUHU216HW,2014-09-16 12:11:00,
2014-09-16 07:16:00,52.9,49.4,28.34,NNE,23,4.5,4.9,88,0.00,,,0.00,WUHU216HW,2014-09-16 12:16:00,
2014-09-16 07:21:00,52.9,49.4,28.34,NNE,23,0.9,4.9,88,0.00,,,0.00,WUHU216HW,2014-09-16 12:21:00,
2014-09-16 07:26:00,52.9,49.4,28.34,NNE,23,0.7,3.6,88,0.00,,,0.00,WUHU216HW,2014-09-16 12:26:00,
2014-09-16 07:31:00,53.1,49.6,28.34,NNE,23,0.0,2.7,88,0.00,,,0.00,WUHU216HW,2014-09-16 12:31:00,
2014-09-16 07:36:00,53.1,49.6,28.34,NNE,23,2.5,2.7,88,0.00,,,0.00,WUHU216HW,2014-09-16 12:36:00,
2014-09-16 07:41:00,53.3,49.8,28.34,NNE,23,0.0,2.5,88,0.00,,,0.00,WUHU216HW,2014-09-16 12:41:00,
2014-09-16 07:47:00,53.5,50.0,28.34,NNE,23,0.0,1.1,88,0.00,,,0.00,WUHU216HW,2014-09-16 12:47:00,
2014-09-16 07:52:00,53.5,50.0,28.33,NNE,23,0.0,0.9,88,0.00,,,0.00,WUHU216HW,2014-09-16 12:52:00,
2014-09-16 07:57:00,53.6,50.1,28.34,NNE,23,0.0,0.9,88,0.00,,,0.00,WUHU216HW,2014-09-16 12:57:00,
2014-09-16 08:02:00,53.6,50.1,28.33,NNE,23,0.0,0.0,88,0.00,,,0.00,WUHU216HW,2014-09-16 13:02:00,
2014-09-16 08:07:00,53.6,50.1,28.33,NNE,23,0.0,0.0,88,0.00,,,0.00,WUHU216HW,2014-09-16 13:07:00,
2014-09-16 08:12:00,53.8,50.3,28.33,NNE,23,0.0,0.2,88,0.00,,,0.00,WUHU216HW,2014-09-16 13:12:00,
2014-09-16 08:17:00,53.8,50.3,28.33,NNE,23,0.0,0.2,88,0.00,,,0.00,WUHU216HW,2014-09-16 13:17:00,
2014-09-16 08:22:00,54.0,50.5,28.33,NNE,23,0.0,0.0,88,0.00,,,0.00,WUHU216HW,2014-09-16 13:22:00,
2014-09-16 08:27:00,54.2,50.7,28.34,NNE,23,0.0,0.0,88,0.00,,,0.00,WUHU216HW,2014-09-16 13:27:00,
2014-09-16 08:32:00,54.4,50.9,28.34,NNE,23,0.0,0.0,88,0.00,,,0.00,WUHU216HW,2014-09-16 13:32:00,
2014-09-16 08:37:00,54.4,50.9,28.34,NNE,23,0.0,0.4,88,0.00,,,0.00,WUHU216HW,2014-09-16 13:37:00,
2014-09-16 08:42:00,54.4,50.9,28.34,NNE,23,1.1,1.1,88,0.00,,,0.00,WUHU216HW,2014-09-16 13:42:00,
2014-09-16 08:48:00,54.7,51.2,28.34,NNE,23,0.0,1.1,88,0.00,,,0.00,WUHU216HW,2014-09-16 13:48:00,
2014-09-16 08:53:00,54.9,51.4,28.34,NNE,23,0.0,0.4,88,0.00,,,0.00,WUHU216HW,2014-09-16 13:53:00,
2014-09-16 08:58:00,54.9,51.4,28.33,NNE,23,0.0,0.0,88,0.00,,,0.00,WUHU216HW,2014-09-16 13:58:00,
2014-09-16 09:03:00,55.3,51.8,28.33,NNE,23,0.0,0.0,88,0.00,,,0.00,WUHU216HW,2014-09-16 14:03:00,
2014-09-16 09:08:00,55.3,51.4,28.33,NNE,23,0.0,0.0,87,0.00,,,0.00,WUHU216HW,2014-09-16 14:08:00,
2014-09-16 09:13:00,55.6,51.8,28.33,NNE,23,0.0,0.4,87,0.00,,,0.00,WUHU216HW,2014-09-16 14:13:00,
2014-09-16 09:18:00,55.8,51.9,28.33,NNE,23,0.0,0.4,87,0.00,,,0.00,WUHU216HW,2014-09-16 14:18:00,
2014-09-16 09:22:00,56.2,52.0,28.33,NNE,23,0.0,0.0,86,0.00,,,0.00,WUHU216HW,2014-09-16 14:22:00,
2014-09-16 09:27:00,56.3,52.2,28.33,NNE,23,0.0,1.1,86,0.00,,,0.00,WUHU216HW,2014-09-16 14:27:00,
2014-09-16 09:32:00,56.5,52.4,28.33,NNE,23,0.0,1.1,86,0.00,,,0.00,WUHU216HW,2014-09-16 14:32:00,
2014-09-16 09:37:00,56.9,52.8,28.33,NNE,23,0.0,0.2,86,0.00,,,0.00,WUHU216HW,2014-09-16 14:37:00,
2014-09-16 09:42:00,56.9,52.4,28.32,NNE,23,0.0,0.0,85,0.00,,,0.00,WUHU216HW,2014-09-16 14:42:00,
2014-09-16 09:47:00,57.1,52.2,28.32,NNE,23,0.0,1.8,84,0.00,,,0.00,WUHU216HW,2014-09-16 14:47:00,
2014-09-16 09:52:00,57.2,52.7,28.32,NNE,23,0.0,1.8,85,0.00,,,0.00,WUHU216HW,2014-09-16 14:52:00,
2014-09-16 09:57:00,57.4,52.6,28.32,NNE,23,4.5,4.5,84,0.00,,,0.00,WUHU216HW,2014-09-16 14:57:00,
2014-09-16 10:03:00,57.8,52.9,28.32,NNE,23,6.5,6.5,84,0.00,,,0.00,WUHU216HW,2014-09-16 15:03:00,
2014-09-16 10:07:00,58.0,52.8,28.32,NNE,23,5.6,6.5,83,0.00,,,0.00,WUHU216HW,2014-09-16 15:07:00,
2014-09-16 10:12:00,58.5,53.4,28.32,NNE,23,4.3,6.7,83,0.00,,,0.00,WUHU216HW,2014-09-16 15:12:00,
2014-09-16 10:17:00,58.7,53.2,28.32,NNE,23,6.3,7.2,82,0.00,,,0.00,WUHU216HW,2014-09-16 15:17:00,
2014-09-16 10:22:00,58.9,53.1,28.32,NNE,23,4.7,7.2,81,0.00,,,0.00,WUHU216HW,2014-09-16 15:22:00,
2014-09-16 10:27:00,59.0,53.3,28.32,NNE,23,7.6,8.1,81,0.00,,,0.00,WUHU216HW,2014-09-16 15:27:00,
2014-09-16 10:32:00,59.4,53.3,28.32,NNE,23,5.8,8.3,80,0.00,,,0.00,WUHU216HW,2014-09-16 15:32:00,
2014-09-16 10:37:00,59.8,53.6,28.32,NNE,23,6.7,8.3,80,0.00,,,0.00,WUHU216HW,2014-09-16 15:37:00,
2014-09-16 10:42:00,59.9,53.5,28.31,NNE,23,6.0,8.7,79,0.00,,,0.00,WUHU216HW,2014-09-16 15:42:00,
2014-09-16 10:48:00,60.3,53.5,28.31,NNE,23,4.7,8.7,78,0.00,,,0.00,WUHU216HW,2014-09-16 15:48:00,
2014-09-16 10:53:00,60.7,53.8,28.31,NNE,23,6.3,7.8,78,0.00,,,0.00,WUHU216HW,2014-09-16 15:53:00,
2014-09-16 10:58:00,61.2,54.0,28.30,NNE,23,5.4,9.6,77,0.00,,,0.00,WUHU216HW,2014-09-16 15:58:00,
2014-09-16 11:03:00,61.4,53.7,28.31,NNE,23,7.2,9.6,76,0.00,,,0.00,WUHU216HW,2014-09-16 16:03:00,
2014-09-16 11:08:00,61.6,53.6,28.30,NNE,23,6.3,8.1,75,0.00,,,0.00,WUHU216HW,2014-09-16 16:08:00,
2014-09-16 11:13:00,61.7,53.4,28.30,NNE,23,6.5,9.2,74,0.00,,,0.00,WUHU216HW,2014-09-16 16:13:00,
2014-09-16 11:18:00,61.9,53.6,28.30,NNE,23,7.2,10.5,74,0.00,,,0.00,WUHU216HW,2014-09-16 16:18:00,
2014-09-16 11:23:00,61.7,53.4,28.30,NNE,23,5.8,10.5,74,0.00,,,0.00,WUHU216HW,2014-09-16 16:23:00,
2014-09-16 11:28:00,62.1,53.7,28.29,NNE,23,8.7,9.4,74,0.00,,,0.00,WUHU216HW,2014-09-16 16:28:00,
2014-09-16 11:33:00,62.5,53.6,28.29,NNE,23,7.8,8.7,73,0.00,,,0.00,WUHU216HW,2014-09-16 16:33:00,
2014-09-16 11:38:00,62.6,53.8,28.29,NNE,23,6.3,8.5,73,0.00,,,0.00,WUHU216HW,2014-09-16 16:38:00,
2014-09-16 11:43:00,63.0,54.5,28.29,NNE,23,9.2,9.2,74,0.00,,,0.00,WUHU216HW,2014-09-16 16:43:00,
2014-09-16 11:48:00,63.0,54.2,28.29,NNE,23,4.7,9.6,73,0.00,,,0.00,WUHU216HW,2014-09-16 16:48:00,
2014-09-16 11:54:00,63.2,54.0,28.29,NNE,23,6.9,9.6,72,0.00,,,0.00,WUHU216HW,2014-09-16 16:54:00,
2014-09-16 11:59:00,63.4,54.2,28.28,NNE,23,8.1,9.2,72,0.00,,,0.00,WUHU216HW,2014-09-16 16:59:00,
2014-09-16 12:04:00,63.4,54.2,28.28,NNE,23,8.5,10.3,72,0.00,,,0.00,WUHU216HW,2014-09-16 17:04:00,
2014-09-16 12:09:00,63.7,54.5,28.28,NNE,23,6.5,10.3,72,0.00,,,0.00,WUHU216HW,2014-09-16 17:09:00,
2014-09-16 12:14:00,64.3,54.7,28.27,NNE,23,4.0,10.1,71,0.00,,,0.00,WUHU216HW,2014-09-16 17:14:00,
2014-09-16 12:15:00,64.4,54.9,28.27,NNE,23,8.1,10.1,71,0.00,,,0.00,WUHU216HW,2014-09-16 17:15:00,
2014-09-16 12:19:00,64.6,55.1,28.27,NNE,23,6.0,9.4,71,0.00,,,0.00,WUHU216HW,2014-09-16 17:19:00,
2014-09-16 12:24:00,65.2,55.2,28.27,NNE,23,5.8,8.1,70,0.00,,,0.00,WUHU216HW,2014-09-16 17:24:00,
2014-09-16 12:29:00,65.7,55.3,28.27,NNE,23,5.6,9.2,69,0.00,,,0.00,WUHU216HW,2014-09-16 17:29:00,
2014-09-16 12:34:00,66.1,56.0,28.27,NNE,23,4.7,9.2,70,0.00,,,0.00,WUHU216HW,2014-09-16 17:34:00,
2014-09-16 12:39:00,66.6,55.7,28.27,NNE,23,8.5,8.5,68,0.00,,,0.00,WUHU216HW,2014-09-16 17:39:00,
2014-09-16 12:44:00,66.8,55.9,28.27,NNE,23,6.5,8.9,68,0.00,,,0.00,WUHU216HW,2014-09-16 17:44:00,
2014-09-16 12:50:00,67.1,55.8,28.26,NNE,23,10.5,10.5,67,0.00,,,0.00,WUHU216HW,2014-09-16 17:50:00,
2014-09-16 12:55:00,67.1,55.4,28.26,NNE,23,10.1,10.5,66,0.00,,,0.00,WUHU216HW,2014-09-16 17:55:00,
2014-09-16 13:00:00,67.1,56.3,28.26,NNE,23,4.0,10.1,68,0.00,,,0.00,WUHU216HW,2014-09-16 18:00:00,
2014-09-16 13:05:00,67.5,56.2,28.26,NNE,23,7.6,9.4,67,0.00,,,0.00,WUHU216HW,2014-09-16 18:05:00,
2014-09-16 13:10:00,67.7,56.4,28.26,NNE,23,7.2,9.8,67,0.00,,,0.00,WUHU216HW,2014-09-16 18:10:00,
2014-09-16 13:15:00,68.0,56.7,28.26,NNE,23,5.6,9.8,67,0.00,,,0.00,WUHU216HW,2014-09-16 18:15:00,
2014-09-16 13:20:00,68.2,56.8,28.25,NNE,23,6.3,7.6,67,0.00,,,0.00,WUHU216HW,2014-09-16 18:20:00,
2014-09-16 13:25:00,68.8,57.3,28.25,NNE,23,7.2,9.2,67,0.00,,,0.00,WUHU216HW,2014-09-16 18:25:00,
2014-09-16 13:30:00,69.5,57.2,28.25,NNE,23,7.2,9.8,65,0.00,,,0.00,WUHU216HW,2014-09-16 18:30:00,
2014-09-16 13:35:00,69.8,57.5,28.24,NNE,23,6.0,9.8,65,0.00,,,0.00,WUHU216HW,2014-09-16 18:35:00,
2014-09-16 13:40:00,70.4,58.1,28.24,NNE,23,4.5,9.8,65,0.00,,,0.00,WUHU216HW,2014-09-16 18:40:00,
2014-09-16 13:45:00,71.1,58.3,28.24,NNE,23,11.6,11.6,64,0.00,,,0.00,WUHU216HW,2014-09-16 18:45:00,
2014-09-16 13:48:00,71.6,59.2,28.24,NNE,23,5.8,11.6,65,0.00,,,0.00,WUHU216HW,2014-09-16 18:48:00,
2014-09-16 13:53:00,72.2,59.3,28.23,NNE,23,12.3,12.3,64,0.00,,,0.00,WUHU216HW,2014-09-16 18:53:00,
2014-09-16 13:58:00,72.5,59.2,28.23,NNE,23,8.3,12.3,63,0.00,,,0.00,WUHU216HW,2014-09-16 18:58:00,
2014-09-16 14:03:00,72.7,59.4,28.23,NNE,23,7.8,12.8,63,0.00,,,0.00,WUHU216HW,2014-09-16 19:03:00,
2014-09-16 14:08:00,72.9,59.9,28.22,NNE,23,8.5,12.8,64,0.00,,,0.00,WUHU216HW,2014-09-16 19:08:00,
2014-09-16 14:13:00,73.3,59.9,28.22,NNE,23,9.2,9.6,63,0.00,,,0.00,WUHU216HW,2014-09-16 19:13:00,
2014-09-16 14:19:00,73.6,60.2,28.22,NNE,23,6.5,9.6,63,0.00,,,0.00,WUHU216HW,2014-09-16 19:19:00,
2014-09-16 14:24:00,73.8,59.5,28.22,NNE,23,10.5,10.5,61,0.00,,,0.00,WUHU216HW,2014-09-16 19:24:00,
2014-09-16 14:29:00,73.6,59.8,28.21,NNE,23,9.8,10.5,62,0.00,,,0.00,WUHU216HW,2014-09-16 19:29:00,
2014-09-16 14:34:00,73.6,60.2,28.21,NNE,23,7.6,10.5,63,0.00,,,0.00,WUHU216HW,2014-09-16 19:34:00,
2014-09-16 14:39:00,73.6,60.2,28.21,NNE,23,5.4,11.9,63,0.00,,,0.00,WUHU216HW,2014-09-16 19:39:00,
2014-09-16 14:44:00,74.0,61.0,28.20,NNE,23,9.6,11.9,64,0.00,,,0.00,WUHU216HW,2014-09-16 19:44:00,
2014-09-16 14:49:00,75.1,61.2,28.20,NNE,23,9.4,10.5,62,0.00,,,0.00,WUHU216HW,2014-09-16 19:49:00,
2014-09-16 14:54:00,75.6,61.2,28.20,NNE,23,7.4,13.2,61,0.00,,,0.00,WUHU216HW,2014-09-16 19:54:00,
2014-09-16 14:59:00,76.0,61.1,28.19,NNE,23,9.2,13.2,60,0.00,,,0.00,WUHU216HW,2014-09-16 19:59:00,
2014-09-16 15:04:00,76.0,61.6,28.19,NNE,23,8.5,12.3,61,0.00,,,0.00,WUHU216HW,2014-09-16 20:04:00,
2014-09-16 15:09:00,76.3,61.5,28.19,NNE,23,8.5,10.3,60,0.00,,,0.00,WUHU216HW,2014-09-16 20:09:00,
2014-09-16 15:11:00,76.3,61.5,28.18,NNE,23,9.6,10.3,60,0.00,,,0.00,WUHU216HW,2014-09-16 20:11:00,
2014-09-16 15:16:00,76.3,60.9,28.18,NNE,23,10.5,11.6,59,0.00,,,0.00,WUHU216HW,2014-09-16 20:16:00,
2014-09-16 15:21:00,76.0,61.6,28.18,NNE,23,4.7,11.6,61,0.00,,,0.00,WUHU216HW,2014-09-16 20:21:00,
2014-09-16 15:26:00,76.3,61.5,28.17,NNE,23,10.3,14.3,60,0.00,,,0.00,WUHU216HW,2014-09-16 20:26:00,
2014-09-16 15:31:00,77.0,62.6,28.17,NNE,23,4.0,14.3,61,0.00,,,0.00,WUHU216HW,2014-09-16 20:31:00,
2014-09-16 15:36:00,77.8,62.3,28.17,NNE,23,8.5,11.2,59,0.00,,,0.00,WUHU216HW,2014-09-16 20:36:00,
2014-09-16 15:41:00,78.1,62.6,28.17,NNE,23,4.7,11.2,59,0.00,,,0.00,WUHU216HW,2014-09-16 20:41:00,
2014-09-16 15:46:00,78.5,62.0,28.16,NNE,23,11.4,13.4,57,0.00,,,0.00,WUHU216HW,2014-09-16 20:46:00,
2014-09-16 15:51:00,78.8,62.8,28.15,NNE,23,7.4,13.4,58,0.00,,,0.00,WUHU216HW,2014-09-16 20:51:00,
2014-09-16 15:56:00,79.0,62.5,28.15,NNE,23,11.2,11.6,57,0.00,,,0.00,WUHU216HW,2014-09-16 20:56:00,
2014-09-16 16:02:00,79.0,62.5,28.15,NNE,23,7.6,11.6,57,0.00,,,0.00,WUHU216HW,2014-09-16 21:02:00,
2014-09-16 16:07:00,79.2,62.6,28.15,NNE,23,5.6,11.6,57,0.00,,,0.00,WUHU216HW,2014-09-16 21:07:00,
2014-09-16 16:12:00,79.6,63.0,28.14,NNE,23,7.8,11.6,57,0.00,,,0.00,WUHU216HW,2014-09-16 21:12:00,
2014-09-16 16:17:00,79.6,62.5,28.14,NNE,23,13.0,13.0,56,0.00,,,0.00,WUHU216HW,2014-09-16 21:17:00,
2014-09-16 16:22:00,79.6,62.5,28.14,NNE,23,5.4,13.0,56,0.00,,,0.00,WUHU216HW,2014-09-16 21:22:00,
2014-09-16 16:27:00,79.7,62.7,28.14,NNE,23,6.7,12.1,56,0.00,,,0.00,WUHU216HW,2014-09-16 21:27:00,
2014-09-16 16:32:00,80.1,63.5,28.14,NNE,23,8.1,12.1,57,0.00,,,0.00,WUHU216HW,2014-09-16 21:32:00,
2014-09-16 16:37:00,80.1,62.9,28.14,NNE,23,6.3,13.2,56,0.00,,,0.00,WUHU216HW,2014-09-16 21:37:00,
2014-09-16 16:42:00,79.2,62.6,28.13,NNE,23,10.1,13.2,57,0.00,,,0.00,WUHU216HW,2014-09-16 21:42:00,
2014-09-16 16:47:00,78.7,63.2,28.13,NNE,23,6.3,11.4,59,0.00,,,0.00,WUHU216HW,2014-09-16 21:47:00,
2014-09-16 16:52:00,78.5,63.0,28.13,NNE,23,11.0,11.4,59,0.00,,,0.00,WUHU216HW,2014-09-16 21:52:00,
2014-09-16 16:57:00,78.8,63.9,28.12,NNE,23,8.3,11.0,60,0.00,,,0.00,WUHU216HW,2014-09-16 21:57:00,
2014-09-16 17:02:00,79.9,63.8,28.12,NNE,23,9.8,12.1,58,0.00,,,0.00,WUHU216HW,2014-09-16 22:02:00,
2014-09-16 17:08:00,80.5,63.8,28.12,NNE,23,8.7,12.1,57,0.00,,,0.00,WUHU216HW,2014-09-16 22:08:00,
2014-09-16 17:10:00,80.6,64.0,28.12,NNE,23,10.7,10.7,57,0.00,,,0.00,WUHU216HW,2014-09-16 22:10:00,
2014-09-16 17:15:00,80.6,64.4,28.12,NNE,23,6.9,10.7,58,0.00,,,0.00,WUHU216HW,2014-09-16 22:15:00,
2014-09-16 17:20:00,81.2,64.4,28.11,NNE,23,6.9,8.7,57,0.00,,,0.00,WUHU216HW,2014-09-16 22:20:00,
2014-09-16 17:25:00,81.7,64.5,28.11,NNE,23,9.8,10.1,56,0.00,,,0.00,WUHU216HW,2014-09-16 22:25:00,
2014-09-16 17:30:00,81.9,64.1,28.11,NNE,23,9.8,11.4,55,0.00,,,0.00,WUHU216HW,2014-09-16 22:30:00,
2014-09-16 17:35:00,81.7,63.9,28.11,NNE,23,10.3,11.4,55,0.00,,,0.00,WUHU216HW,2014-09-16 22:35:00,
2014-09-16 17:40:00,81.7,64.5,28.11,NNE,23,7.6,11.4,56,0.00,,,0.00,WUHU216HW,2014-09-16 22:40:00,
2014-09-16 17:45:00,81.7,64.5,28.10,NNE,23,10.3,11.4,56,0.00,,,0.00,WUHU216HW,2014-09-16 22:45:00,
2014-09-16 17:50:00,81.5,64.3,28.10,NNE,23,8.9,10.3,56,0.00,,,0.00,WUHU216HW,2014-09-16 22:50:00,
2014-09-16 17:55:00,81.7,64.5,28.10,NNE,23,6.9,10.1,56,0.00,,,0.00,WUHU216HW,2014-09-16 22:55:00,
2014-09-16 18:00:00,81.7,64.5,28.09,NNE,23,9.8,11.0,56,0.00,,,0.00,WUHU216HW,2014-09-16 23:00:00,
2014-09-16 18:05:00,81.7,64.9,28.09,NNE,23,7.2,11.0,57,0.00,,,0.00,WUHU216HW,2014-09-16 23:05:00,
2014-09-16 18:10:00,81.7,64.5,28.09,NNE,23,11.4,12.1,56,0.00,,,0.00,WUHU216HW,2014-09-16 23:10:00,
2014-09-16 18:15:00,81.5,64.8,28.09,NNE,23,8.1,12.1,57,0.00,,,0.00,WUHU216HW,2014-09-16 23:15:00,
2014-09-16 18:21:00,81.7,64.9,28.09,NNE,23,11.0,11.4,57,0.00,,,0.00,WUHU216HW,2014-09-16 23:21:00,
2014-09-16 18:26:00,82.1,64.7,28.09,NNE,23,9.6,12.1,56,0.00,,,0.00,WUHU216HW,2014-09-16 23:26:00,
2014-09-16 18:31:00,82.4,65.1,28.09,NNE,23,7.2,12.1,56,0.00,,,0.00,WUHU216HW,2014-09-16 23:31:00,
2014-09-16 18:36:00,82.8,64.9,28.09,NNE,23,8.5,11.9,55,0.00,,,0.00,WUHU216HW,2014-09-16 23:36:00,
2014-09-16 18:41:00,82.1,64.7,28.09,NNE,23,7.2,11.9,56,0.00,,,0.00,WUHU216HW,2014-09-16 23:41:00,
2014-09-16 18:46:00,81.2,64.4,28.09,NNE,23,8.5,11.4,57,0.00,,,0.00,WUHU216HW,2014-09-16 23:46:00,
2014-09-16 18:51:00,80.5,64.4,28.08,NNE,23,9.2,12.8,58,0.00,,,0.00,WUHU216HW,2014-09-16 23:51:00,
2014-09-16 18:56:00,80.3,64.7,28.09,NNE,23,8.3,12.8,59,0.00,,,0.00,WUHU216HW,2014-09-16 23:56:00,
2014-09-16 19:01:00,80.8,65.2,28.08,NNE,23,5.8,10.1,59,0.00,,,0.00,WUHU216HW,2014-09-17 00:01:00,
2014-09-16 19:06:00,80.3,64.7,28.08,NNE,23,6.7,8.5,59,0.00,,,0.00,WUHU216HW,2014-09-17 00:06:00,
2014-09-16 19:11:00,79.0,64.5,28.08,NNE,23,8.5,9.8,61,0.00,,,0.00,WUHU216HW,2014-09-17 00:11:00,
2014-09-16 19:16:00,78.1,64.1,28.08,NNE,23,6.9,10.7,62,0.00,,,0.00,WUHU216HW,2014-09-17 00:16:00,
2014-09-16 19:21:00,77.6,64.0,28.08,NNE,23,6.3,10.7,63,0.00,,,0.00,WUHU216HW,2014-09-17 00:21:00,
2014-09-16 19:26:00,77.2,64.1,28.08,NNE,23,5.6,9.4,64,0.00,,,0.00,WUHU216HW,2014-09-17 00:26:00,
2014-09-16 19:32:00,76.7,64.0,28.08,NNE,23,4.7,9.4,65,0.00,,,0.00,WUHU216HW,2014-09-17 00:32:00,
2014-09-16 19:37:00,76.1,63.5,28.08,NNE,23,4.7,6.7,65,0.00,,,0.00,WUHU216HW,2014-09-17 00:37:00,
2014-09-16 19:42:00,75.6,63.5,28.08,NNE,23,3.6,5.1,66,0.00,,,0.00,WUHU216HW,2014-09-17 00:42:00,
2014-09-16 19:47:00,75.1,63.4,28.08,NNE,23,4.9,5.1,67,0.00,,,0.00,WUHU216HW,2014-09-17 00:47:00,
2014-09-16 19:52:00,74.5,63.3,28.08,NNE,23,4.0,6.3,68,0.00,,,0.00,WUHU216HW,2014-09-17 00:52:00,
2014-09-16 19:53:00,74.5,63.3,28.08,NNE,23,4.9,6.3,68,0.00,,,0.00,WUHU216HW,2014-09-17 00:53:00,
2014-09-16 19:58:00,74.0,63.2,28.07,NNE,23,5.1,6.3,69,0.00,,,0.00,WUHU216HW,2014-09-17 00:58:00,
2014-09-16 20:03:00,73.6,63.4,28.07,NNE,23,6.5,6.5,70,0.00,,,0.00,WUHU216HW,2014-09-17 01:03:00,
2014-09-16 20:08:00,73.3,63.4,28.07,NNE,23,5.1,6.5,71,0.00,,,0.00,WUHU216HW,2014-09-17 01:08:00,
2014-09-16 20:13:00,72.9,63.0,28.07,NNE,23,4.7,5.8,71,0.00,,,0.00,WUHU216HW,2014-09-17 01:13:00,
2014-09-16 20:18:00,72.5,63.0,28.07,NNE,23,3.4,5.8,72,0.00,,,0.00,WUHU216HW,2014-09-17 01:18:00,
2014-09-16 20:23:00,72.2,62.6,28.08,NNE,23,4.7,4.9,72,0.00,,,0.00,WUHU216HW,2014-09-17 01:23:00,
2014-09-16 20:28:00,71.8,62.3,28.08,NNE,23,4.0,5.8,72,0.00,,,0.00,WUHU216HW,2014-09-17 01:28:00,
2014-09-16 20:34:00,71.6,62.6,28.08,NNE,23,3.4,5.8,73,0.00,,,0.00,WUHU216HW,2014-09-17 01:34:00,
2014-09-16 20:39:00,71.3,62.2,28.08,NNE,23,4.7,5.4,73,0.00,,,0.00,WUHU216HW,2014-09-17 01:39:00,
2014-09-16 20:44:00,71.1,62.4,28.08,NNE,23,5.1,5.6,74,0.00,,,0.00,WUHU216HW,2014-09-17 01:44:00,
2014-09-16 20:49:00,70.9,62.2,28.08,NNE,23,4.7,5.6,74,0.00,,,0.00,WUHU216HW,2014-09-17 01:49:00,
2014-09-16 20:54:00,70.6,62.2,28.08,NNE,23,4.7,5.1,75,0.00,,,0.00,WUHU216HW,2014-09-17 01:54:00,